Weather History for KIBM - April, 2013

Change the Weather History Date:

Sunday, April 28, 2013

  Actual Average (KSNY) Record (KSNY)
Temperature  
Mean Temperature 60 °F 52 °F  
Max Temperature 76 °F 66 °F 82 °F (1954)
Min Temperature 43 °F 37 °F 15 °F (1969)
Degree Days  
Heating Degree Days 6 13  
Month to date heating degree days 503  
Since 1 July heating degree days 5888  
Cooling Degree Days 0 0  
Month to date cooling degree days 0  
Year to date cooling degree days 0  
Growing Degree Days 10 (Base 50)    
Moisture  
Dew Point 27 °F    
Average Humidity 29    
Maximum Humidity 53    
Minimum Humidity 14    
Precipitation  
Precipitation 0.00 in 0.09 in 0.54 in (1976)
Month to date precipitation 1.86  
Year to date precipitation 3.48  
Sea Level Pressure  
Sea Level Pressure 29.91 in    
Wind  
Wind Speed 13 mph (WNW)    
Max Wind Speed 25 mph    
Max Gust Speed 31 mph    
Visibility 10 miles    
Events      
T = Trace of Precipitation, MM = Missing Value Source: NWS Daily Summary

Daily Weather History Graph

Daily Weather History Graph

Search for Another Location

Airport or City:

Trip Planner

Search our weather history database for the weather conditions in past years. The results will help you decide how hot, cold, wet, or windy it might be!

Date:

Astronomy

Apr. 28, 2013 Rise Set
Actual Time 6:55 AM CDT 8:49 PM CDT
Civil Twilight 6:26 AM CDT 9:18 PM CDT
Nautical Twilight 5:50 AM CDT 9:55 PM CDT
Astronomical Twilight 5:11 AM CDT 10:34 PM CDT
Moon No Moon Rise 9:13 AM CDT (4/28)
Length of Visible Light 14h 52m
Length of Day
13h 53m
Waning Gibbous, 88% of the Moon is Illuminated
Apr 28
Waning Gibbous
May 2
Last Quarter
May 9
New
May 17
First Quarter
May 24
Full

Hourly Weather History & Observations

Time (CDT) Temp. Windchill Dew Point Humidity Pressure Visibility Wind Dir Wind Speed Gust Speed Precip Events Conditions
12:15 AM 43.5 °F 38.3 °F 27.3 °F 53% 29.98 in 10.0 mi WSW 9.2 mph - N/A   Clear
12:35 AM 45.5 °F 40.3 °F 27.9 °F 50% 29.98 in 10.0 mi West 10.4 mph - N/A   Clear
12:55 AM 45.5 °F 40.8 °F 28.2 °F 51% 29.97 in 10.0 mi West 9.2 mph - N/A   Clear
1:15 AM 45.3 °F 40.1 °F 27.9 °F 51% 29.97 in 10.0 mi West 10.4 mph - N/A   Clear
1:35 AM 46.9 °F - 27.5 °F 47% 29.96 in 10.0 mi West 9.2 mph - N/A   Clear
1:55 AM 45.7 °F 41.0 °F 27.7 °F 49% 29.96 in 10.0 mi WSW 9.2 mph - N/A   Clear
2:15 AM 46.4 °F 41.5 °F 27.5 °F 48% 29.95 in 10.0 mi West 10.4 mph - N/A   Clear
2:35 AM 45.1 °F 40.3 °F 27.5 °F 50% 29.94 in 10.0 mi West 9.2 mph - N/A   Clear
2:55 AM 47.5 °F - 27.0 °F 45% 29.94 in 10.0 mi West 10.4 mph - N/A   Clear
3:15 AM 46.6 °F - 27.5 °F 47% 29.93 in 10.0 mi West 11.5 mph - N/A   Clear
3:35 AM 49.3 °F - 26.2 °F 41% 29.93 in 10.0 mi West 15.0 mph 18.4 mph N/A   Clear
3:55 AM 53.4 °F - 23.9 °F 32% 29.93 in 10.0 mi West 17.3 mph - N/A   Clear
4:15 AM 53.1 °F - 23.7 °F 32% 29.93 in 10.0 mi West 19.6 mph - N/A   Clear
4:35 AM 53.8 °F - 23.0 °F 30% 29.93 in 10.0 mi West 18.4 mph - N/A   Clear
4:55 AM 53.6 °F - 22.8 °F 30% 29.94 in 10.0 mi West 17.3 mph - N/A   Clear
5:35 AM 48.6 °F - 24.8 °F 39% 29.94 in 10.0 mi West 13.8 mph - N/A   Clear
6:15 AM 47.5 °F - 25.3 °F 42% 29.93 in 10.0 mi West 12.7 mph - N/A   Clear
6:35 AM 44.4 °F 40.0 °F 26.1 °F 49% 29.93 in 10.0 mi West 8.1 mph - N/A   Clear
6:55 AM 47.8 °F - 25.9 °F 42% 29.93 in 10.0 mi West 13.8 mph - N/A   Clear
7:15 AM 46.6 °F - 26.6 °F 46% 29.93 in 10.0 mi West 11.5 mph - N/A   Clear
7:35 AM 51.8 °F - 26.6 °F 38% 29.93 in 10.0 mi West 16.1 mph - N/A   Clear
8:15 AM 55.9 °F - 27.1 °F 33% 29.94 in 10.0 mi West 15.0 mph - N/A   Clear
8:35 AM 58.5 °F - 26.6 °F 30% 29.93 in 10.0 mi West 18.4 mph - N/A   Clear
8:55 AM 60.3 °F - 27.3 °F 29% 29.93 in 10.0 mi West 17.3 mph 20.7 mph N/A   Clear
9:15 AM 62.1 °F - 27.5 °F 27% 29.94 in 10.0 mi West 17.3 mph 23.0 mph N/A   Clear
9:35 AM 63.7 °F - 27.7 °F 26% 29.92 in 10.0 mi West 21.9 mph 26.5 mph N/A   Clear
9:55 AM 65.7 °F - 28.4 °F 25% 29.93 in 10.0 mi West 23.0 mph 27.6 mph N/A   Clear
10:15 AM 67.3 °F - 28.9 °F 24% 29.92 in 10.0 mi West 25.3 mph - N/A   Clear
10:35 AM 70.3 °F - 28.0 °F 21% 29.91 in 10.0 mi West 24.2 mph 29.9 mph N/A   Clear
10:55 AM 72.7 °F - 23.9 °F 16% 29.90 in 10.0 mi WNW 20.7 mph 31.1 mph N/A   Clear
11:15 AM 72.7 °F - 23.7 °F 16% 29.91 in 10.0 mi NW 21.9 mph 31.1 mph N/A   Clear
11:35 AM 73.6 °F - 23.9 °F 16% 29.91 in 10.0 mi NW 20.7 mph 31.1 mph N/A   Clear
11:55 AM 73.9 °F - 23.5 °F 15% 29.91 in 10.0 mi NW 17.3 mph 25.3 mph N/A   Clear
12:15 PM 74.3 °F - 21.9 °F 14% 29.91 in 10.0 mi NW 12.7 mph 21.9 mph N/A   Clear
12:35 PM 74.7 °F - 22.5 °F 14% 29.91 in 10.0 mi NW 18.4 mph 27.6 mph N/A   Clear
12:55 PM 75.0 °F - 22.1 °F 14% 29.90 in 10.0 mi NNW 15.0 mph 26.5 mph N/A   Clear
1:15 PM 75.2 °F - 22.8 °F 14% 29.90 in 10.0 mi NW 13.8 mph 27.6 mph N/A   Clear
1:35 PM 75.7 °F - 23.5 °F 14% 29.90 in 10.0 mi NW 17.3 mph 26.5 mph N/A   Clear
1:55 PM 75.0 °F - 22.8 °F 14% 29.90 in 10.0 mi NW 9.2 mph 24.2 mph N/A   Clear
2:15 PM 75.6 °F - 23.7 °F 15% 29.89 in 10.0 mi North 17.3 mph 24.2 mph N/A   Clear
2:35 PM 76.1 °F - 23.7 °F 14% 29.89 in 10.0 mi NNW 17.3 mph 24.2 mph N/A   Clear
2:55 PM 75.9 °F - 23.7 °F 14% 29.89 in 10.0 mi North 16.1 mph 25.3 mph N/A   Clear
3:15 PM 74.5 °F - 23.4 °F 15% 29.89 in 10.0 mi North 12.7 mph 18.4 mph N/A   Clear
3:35 PM 75.9 °F - 22.8 °F 14% 29.88 in 10.0 mi NW 9.2 mph 18.4 mph N/A   Clear
3:55 PM 74.7 °F - 23.5 °F 15% 29.88 in 10.0 mi North 12.7 mph 19.6 mph N/A   Scattered Clouds
4:15 PM 75.9 °F - 24.6 °F 15% 29.86 in 10.0 mi NNE 17.3 mph 21.9 mph N/A   Clear
4:35 PM 75.6 °F - 24.4 °F 15% 29.86 in 10.0 mi North 10.4 mph 19.6 mph N/A   Scattered Clouds
4:55 PM 73.6 °F - 25.0 °F 16% 29.85 in 10.0 mi North 10.4 mph 17.3 mph N/A   Mostly Cloudy
5:15 PM 73.8 °F - 25.0 °F 16% 29.85 in 10.0 mi NNE 6.9 mph 11.5 mph N/A   Mostly Cloudy
5:35 PM 74.8 °F - 25.0 °F 16% 29.87 in 10.0 mi NNW 15.0 mph 18.4 mph N/A   Mostly Cloudy
5:55 PM 73.9 °F - 24.8 °F 16% 29.87 in 10.0 mi NNW 13.8 mph 18.4 mph N/A   Mostly Cloudy
6:15 PM 72.7 °F - 25.5 °F 17% 29.86 in 10.0 mi NNE 9.2 mph - N/A   Scattered Clouds
6:35 PM 70.3 °F - 28.8 °F 21% 29.88 in 10.0 mi NNE 12.7 mph - N/A   Mostly Cloudy
6:55 PM 68.9 °F - 29.7 °F 23% 29.89 in 10.0 mi NNW 9.2 mph - N/A   Overcast
7:15 PM 68.4 °F - 30.0 °F 24% 29.87 in 10.0 mi East 4.6 mph - N/A   Mostly Cloudy
7:35 PM 67.3 °F - 30.6 °F 25% 29.87 in 10.0 mi East 6.9 mph - N/A   Mostly Cloudy
7:55 PM 65.5 °F - 32.0 °F 29% 29.86 in 10.0 mi ESE 6.9 mph - N/A   Overcast
8:15 PM 66.0 °F - 30.9 °F 27% 29.88 in 10.0 mi Calm Calm - N/A   Overcast
8:35 PM 65.3 °F - 31.8 °F 29% 29.88 in 10.0 mi NW 5.8 mph - N/A   Mostly Cloudy
8:55 PM 63.9 °F - 31.5 °F 30% 29.89 in 10.0 mi NW 3.5 mph - N/A   Mostly Cloudy
9:15 PM 64.0 °F - 32.0 °F 30% 29.90 in 10.0 mi West 13.8 mph 19.6 mph N/A   Mostly Cloudy
9:35 PM 64.2 °F - 32.0 °F 30% 29.90 in 10.0 mi West 10.4 mph 19.6 mph N/A   Mostly Cloudy
9:55 PM 63.0 °F - 31.6 °F 31% 29.89 in 10.0 mi Calm Calm - N/A   Mostly Cloudy
10:15 PM 61.7 °F - 32.0 °F 33% 29.89 in 10.0 mi Calm Calm - N/A   Overcast
10:35 PM 60.8 °F - 32.9 °F 35% 29.91 in 10.0 mi ENE 6.9 mph 10.4 mph N/A   Overcast
10:55 PM 60.3 °F - 32.0 °F 34% 29.92 in 10.0 mi East 13.8 mph 17.3 mph N/A   Overcast
11:15 PM 59.2 °F - 31.6 °F 35% 29.90 in 10.0 mi SE 13.8 mph - N/A   Overcast
11:35 PM 57.6 °F - 31.8 °F 38% 29.90 in 10.0 mi ESE 19.6 mph 24.2 mph N/A   Mostly Cloudy
11:55 PM 57.2 °F - 32.0 °F 38% 29.90 in 10.0 mi ESE 13.8 mph 19.6 mph N/A   Mostly Cloudy